Branson, MO

7:11 AM CDT on June 26, 2017 (GMT -0500)
Branson

Weather History for KBBG - August, 2013

Change the Weather History Date:

Thursday, August 29, 2013

  Actual Average (KHRO) Record (KHRO)
Temperature  
Mean Temperature 80 °F -  
Max Temperature 91 °F 86 °F 105 °F (1984)
Min Temperature 68 °F 64 °F 47 °F (1967)
Cooling Degree Days 14    
Growing Degree Days 30 (Base 50)    
Moisture  
Dew Point 69 °F    
Average Humidity 75    
Maximum Humidity 100    
Minimum Humidity 46    
Precipitation  
Precipitation 0.00 in - - ()
Sea Level Pressure  
Sea Level Pressure 30.08 in    
Wind  
Wind Speed 0 mph (West)    
Max Wind Speed 7 mph    
Max Gust Speed -    
Visibility 10 miles    
Events      
Averages and records for this station are not official NWS values.
T = Trace of Precipitation, MM = Missing Value Source: NWS Daily Summary

Daily Weather History Graph

Daily Weather History Graph

Search for Another Location

Airport or City:

Trip Planner

Search our weather history database for the weather conditions in past years. The results will help you decide how hot, cold, wet, or windy it might be!

Date:

Astronomy

Aug. 29, 2013 Rise Set
Actual Time 6:41 AM CDT 7:44 PM CDT
Civil Twilight 6:15 AM CDT 8:11 PM CDT
Nautical Twilight 5:43 AM CDT 8:42 PM CDT
Astronomical Twilight 5:11 AM CDT 9:15 PM CDT
Moon 12:38 AM CDT (8/29) 3:09 PM CDT (8/29)
Length of Visible Light 13h 55m
Length of Day
13h 02m
Last Quarter, 38% of the Moon is Illuminated
Aug 29
Last Quarter
Sep 5
New
Sep 12
First Quarter
Sep 19
Full
Sep 26
Last Quarter

Hourly Weather History & Observations

Time (CDT) Temp. Heat Index Dew Point Humidity Pressure Visibility Wind Dir Wind Speed Gust Speed Precip Events Conditions
12:15 AM 73.4 °F - 68.0 °F 83% 30.10 in 10.0 mi Calm Calm - N/A   Partly Cloudy
12:35 AM 73.4 °F - 68.0 °F 83% 30.10 in 10.0 mi Calm Calm - N/A   Clear
12:55 AM 75.2 °F - 68.0 °F 78% 30.10 in 10.0 mi Calm Calm - N/A   Partly Cloudy
1:15 AM 73.4 °F - 68.0 °F 83% 30.10 in 10.0 mi Calm Calm - N/A   Clear
1:35 AM 73.4 °F - 66.2 °F 78% 30.10 in 10.0 mi Calm Calm - N/A   Clear
1:55 AM 71.6 °F - 68.0 °F 88% 30.09 in 10.0 mi Calm Calm - N/A   Clear
2:15 AM 71.6 °F - 68.0 °F 88% 30.09 in 10.0 mi Calm Calm - N/A   Clear
2:35 AM 73.4 °F - 68.0 °F 83% 30.09 in 10.0 mi Calm Calm - N/A   Clear
2:55 AM 71.6 °F - 68.0 °F 88% 30.09 in 10.0 mi Calm Calm - N/A   Clear
3:15 AM 71.6 °F - 68.0 °F 88% 30.09 in 10.0 mi Calm Calm - N/A   Clear
3:35 AM 71.6 °F - 66.2 °F 83% 30.09 in 10.0 mi Calm Calm - N/A   Clear
3:55 AM 71.6 °F - 68.0 °F 88% 30.09 in 10.0 mi Calm Calm - N/A   Clear
4:15 AM 71.6 °F - 68.0 °F 88% 30.08 in 10.0 mi Calm Calm - N/A   Clear
4:35 AM 69.8 °F - 66.2 °F 88% 30.09 in 10.0 mi Calm Calm - N/A   Clear
4:55 AM 69.8 °F - 68.0 °F 94% 30.09 in 10.0 mi Calm Calm - N/A   Clear
5:15 AM 71.6 °F - 68.0 °F 88% 30.09 in 10.0 mi Calm Calm - N/A   Clear
5:35 AM 69.8 °F - 68.0 °F 94% 30.09 in 10.0 mi Calm Calm - N/A   Clear
5:55 AM 69.8 °F - 68.0 °F 94% 30.09 in 10.0 mi Calm Calm - N/A   Clear
6:15 AM 68.0 °F - 68.0 °F 100% 30.10 in 10.0 mi Calm Calm - N/A   Clear
6:35 AM 71.6 °F - 68.0 °F 88% 30.11 in 10.0 mi Calm Calm - N/A   Clear
6:45 AM 68.0 °F - 68.0 °F 100% 30.11 in 7.0 mi Calm Calm - N/A   Clear
7:45 AM 71.6 °F - 68.0 °F 88% 30.12 in 10.0 mi Calm Calm - N/A   Clear
8:45 AM 77.0 °F - 69.8 °F 78% 30.12 in 10.0 mi Calm Calm - N/A   Clear
9:45 AM 82.4 °F 86.3 °F 69.8 °F 66% 30.13 in 10.0 mi Calm Calm - N/A   Clear
10:50 AM 86.0 °F 89.4 °F 68.0 °F 55% 30.13 in 10.0 mi Calm Calm - N/A   Clear
11:49 AM 87.8 °F 90.4 °F 66.2 °F 49% 30.13 in 10.0 mi Calm Calm - N/A   Partly Cloudy
12:45 PM 89.6 °F 93.4 °F 68.0 °F 49% 30.11 in 10.0 mi WNW 6.9 mph - N/A   Partly Cloudy
1:45 PM 89.6 °F 93.4 °F 68.0 °F 49% 30.10 in 10.0 mi West 5.8 mph - N/A   Scattered Clouds
2:50 PM 91.4 °F 95.4 °F 68.0 °F 46% 30.07 in 10.0 mi West 4.6 mph - N/A   Scattered Clouds
3:50 PM 91.4 °F 95.4 °F 68.0 °F 46% 30.06 in 10.0 mi West 5.8 mph - N/A   Mostly Cloudy
4:45 PM 91.4 °F 95.4 °F 68.0 °F 46% 30.05 in 10.0 mi Calm Calm - N/A   Scattered Clouds
5:45 PM 91.4 °F 96.8 °F 69.8 °F 49% 30.04 in 10.0 mi Calm Calm - N/A   Scattered Clouds
6:55 PM 89.6 °F 94.7 °F 69.8 °F 52% 30.04 in 10.0 mi Calm Calm - N/A   Partly Cloudy
7:45 PM 84.2 °F 89.6 °F 71.6 °F 66% 30.05 in 10.0 mi Calm Calm - N/A   Partly Cloudy
8:45 PM 80.6 °F 85.4 °F 73.4 °F 79% 30.06 in 10.0 mi Calm Calm - N/A   Partly Cloudy
9:15 PM 80.6 °F 84.6 °F 71.6 °F 74% 30.06 in 10.0 mi Calm Calm - N/A   Partly Cloudy
9:35 PM 82.4 °F 87.2 °F 71.6 °F 70% 30.06 in 10.0 mi Calm Calm - N/A   Partly Cloudy
9:55 PM 80.6 °F 84.6 °F 71.6 °F 74% 30.06 in 10.0 mi Calm Calm - N/A   Partly Cloudy
10:15 PM 78.8 °F - 71.6 °F 78% 30.05 in 10.0 mi Calm Calm - N/A   Partly Cloudy
10:35 PM 80.6 °F 84.6 °F 71.6 °F 74% 30.05 in 10.0 mi Calm Calm - N/A   Partly Cloudy
10:55 PM 80.6 °F 83.9 °F 69.8 °F 70% 30.05 in 10.0 mi Calm Calm - N/A   Partly Cloudy
11:15 PM 78.8 °F - 69.8 °F 74% 30.05 in 10.0 mi Calm Calm - N/A   Partly Cloudy
11:35 PM 78.8 °F - 69.8 °F 74% 30.05 in 10.0 mi Calm Calm - N/A   Partly Cloudy
11:55 PM 80.6 °F 83.9 °F 69.8 °F 70% 30.05 in 10.0 mi Calm Calm - N/A   Partly Cloudy